Location: Eymir
(36.7333°N, 29.7833°E)
Time: 01:09:05
(UTC+00:00)

VELOX 1 - Pass Details

Date: 19 May 2026
Orbit: 569 x 578 km, 98.3° (Epoch: 10 June)

Event Time Altitude Azimuth Distance (km) Brightness Sun altitude
Rises 21:18:29 0° 13° (NNE) 2,793 ? -32.6°
Reaches altitude 10° 21:20:38 10° 15° (NNE) 1,892 ? -32.7°
Enters shadow 21:21:59 20° 16° (NNE) 1,347 ? -32.7°
